This is the latest recevied weather packets stored in our database for station/object EUGENE. If no packets are shown the sender has not sent any weather packets the latest 10 day(s).
| Time | Temp. | Humidity | Pressure | Rain* | Wind** | Luminosity | Snow |
|---|---|---|---|---|---|---|---|
| 1777852629 | 30° C | 49% | 1007 hPa | 0 mm | - | - | - |
| 1777851728 | 30° C | 49% | 1007 hPa | 0 mm | - | - | - |
| 1777850829 | 30° C | 49% | 1007.2 hPa | 0 mm | - | - | - |
| 1777849929 | 30° C | 54% | 1007.4 hPa | 0 mm | - | - | - |
| 1777849028 | 30° C | 50% | 1007.7 hPa | 0 mm | - | - | - |
| 1777848128 | 29.44° C | 52% | 1007.9 hPa | 0 mm | - | - | - |
| 1777847228 | 28.33° C | 52% | 1008.2 hPa | 0 mm | - | - | - |
| 1777846328 | 28.89° C | 52% | 1008.4 hPa | 0 mm | - | - | - |
| 1777845428 | 28.89° C | 51% | 1008.7 hPa | 0 mm | - | - | - |
| 1777844528 | 28.89° C | 52% | 1008.8 hPa | 0 mm | - | - | - |
| 1777843629 | 28.33° C | 50% | 1008.9 hPa | 0 mm | - | - | - |
| 1777842728 | 27.78° C | 51% | 1009.1 hPa | 0 mm | - | - | - |
| 1777841828 | 26.67° C | 58% | 1009.2 hPa | 0 mm | - | - | - |
| 1777840928 | 26.67° C | 59% | 1009.4 hPa | 0 mm | - | - | - |
| 1777840029 | 26.11° C | 61% | 1009.6 hPa | 0 mm | - | - | - |
| 1777839128 | 25° C | 61% | 1009.9 hPa | 0 mm | - | - | - |
| 1777838229 | 24.44° C | 60% | 1010.1 hPa | 0 mm | - | - | - |
| 1777837328 | 23.89° C | 59% | 1010.2 hPa | 0 mm | - | - | - |
| 1777836428 | 23.89° C | 62% | 1010.4 hPa | 0 mm | - | - | - |
| 1777835529 | 23.33° C | 64% | 1010.6 hPa | 0 mm | - | - | - |
| 1777834628 | 22.78° C | 67% | 1010.9 hPa | 0 mm | - | - | - |
| 1777833728 | 22.22° C | 67% | 1011 hPa | 0 mm | - | - | - |
| 1777832828 | 22.22° C | 71% | 1011.1 hPa | 0 mm | - | - | - |
| 1777831928 | 21.11° C | 73% | 1011.3 hPa | 0 mm | - | - | - |
| 1777831028 | 20.56° C | 75% | 1011.4 hPa | 0 mm | - | - | - |
* Rain latest hour (hover to see other rain measurements)
** Current wind speed in m/s (hover to see current wind gust speed)